QPF
0.03 0.04 0.05 0.03 0.02 0.03 0.04 0.03 0.03 0.03 0.02 0.02 0.02 0.01 0.01 0.02 0.02 0.02 0.02 0.02 0.03 0.04 0.03 0.03 0.03 0.02 0.01 0.01 0.01 0.01 0.01 0.02 0.03 0.04 0.05 0.05 0.06 0.07
0.02 0.03 0.04 0.03 0.03 0.03 0.04 0.04 0.05 0.04 0.02 0.02 0.02 0.01 0.02 0.02 0.02 0.02 0.02 0.03 0.04 0.04 0.04 0.03 0.03 0.02 0.01 0.01 0.01 0.02 0.01 0.01 0.02 0.03 0.04 0.04 0.05 0.05
0.03 0.03 0.04 0.04 0.04 0.04 0.04 0.05 0.05 0.06 0.04 0.02 0.01 0.02 0.02 0.02 0.01 0.02 0.02 0.02 0.03 0.04 0.06 0.05 0.04 0.03 0.01 0.01 0.01 0.01 0.01 0.01 0.01 0.02 0.02 0.03 0.04 0.05
0.05 0.06 0.06 0.06 0.05 0.05 0.05 0.05 0.05 0.05 0.05 0.03 0.02 0.02 0.02 0.01 0.01 0.01 0.01 0.01 0.01 0.02 0.03 0.05 0.04 0.03 0.03 0.02 0.01 0.01 0.01 0.01 0.01 0.00 0.01 0.01 0.02 0.03
0.06 0.07 0.07 0.07 0.06 0.06 0.06 0.06 0.06 0.06 0.07 0.05 0.03 0.02 0.02 0.01 0.01 0.01 0.02 0.02 0.02 0.02 0.02 0.02 0.02 0.03 0.02 0.02 0.02 0.01 0.01 0.01 0.01 0.00 0.00 0.00 0.01 0.01
0.05 0.05 0.05 0.06 0.06 0.06 0.05 0.05 0.06 0.06 0.06 0.05 0.04 0.03 0.01 0.01 0.02 0.03 0.03 0.02 0.02 0.02 0.01 0.02 0.02 0.03 0.04 0.03 0.03 0.01 0.01 0.01 0.01 0.01 0.01 0.01 0.00 0.00
0.04 0.03 0.03 0.04 0.04 0.05 0.04 0.04 0.05 0.05 0.04 0.04 0.04 0.04 0.02 0.03 0.03 0.04 0.04 0.03 0.02 0.02 0.02 0.02 0.02 0.03 0.04 0.05 0.04 0.02 0.02 0.01 0.01 0.00 0.00 0.00 0.01 0.01
0.05 0.04 0.04 0.04 0.04 0.05 0.06 0.07 0.06 0.06 0.04 0.03 0.03 0.02 0.02 0.03 0.04 0.05 0.04 0.04 0.02 0.02 0.03 0.02 0.01 0.01 0.03 0.05 0.04 0.03 0.02 0.02 0.01 0.00 0.00 0.00 0.00 0.00
0.04 0.04 0.05 0.06 0.08 0.09 0.11 0.11 0.08 0.07 0.06 0.04 0.03 0.02 0.03 0.03 0.04 0.05 0.04 0.03 0.01 0.02 0.03 0.02 0.02 0.01 0.01 0.03 0.05 0.03 0.02 0.02 0.01 0.01 0.01 0.00 0.00 0.00
0.03 0.03 0.05 0.07 0.10 0.14 0.14 0.12 0.08 0.07 0.07 0.05 0.03 0.03 0.03 0.05 0.05 0.06 0.06 0.06 0.04 0.03 0.05 0.04 0.03 0.02 0.01 0.02 0.04 0.05 0.04 0.03 0.02 0.01 0.01 0.01 0.01 0.00
0.03 0.03 0.04 0.04 0.06 0.10 0.12 0.08 0.05 0.05 0.05 0.04 0.04 0.03 0.02 0.02 0.02 0.05 0.05 0.05 0.04 0.04 0.03 0.03 0.02 0.03 0.02 0.02 0.02 0.03 0.03 0.03 0.02 0.01 0.01 0.01 0.01 0.01
0.03 0.03 0.03 0.02 0.03 0.05 0.07 0.06 0.04 0.03 0.02 0.01 0.01 0.01 0.02 0.02 0.03 0.05 0.05 0.04 0.03 0.04 0.05 0.04 0.03 0.03 0.03 0.02 0.03 0.03 0.03 0.03 0.02 0.02 0.01 0.01 0.01 0.01
0.03 0.03 0.02 0.02 0.02 0.02 0.02 0.02 0.02 0.02 0.02 0.01 0.01 0.01 0.01 0.02 0.02 0.04 0.05 0.05 0.04 0.03 0.04 0.06 0.05 0.04 0.04 0.04 0.04 0.04 0.04 0.03 0.03 0.02 0.01 0.01 0.02 0.02
0.02 0.02 0.02 0.02 0.02 0.02 0.02 0.01 0.02 0.02 0.02 0.01 0.01 0.01 0.01 0.02 0.02 0.02 0.03 0.04 0.04 0.04 0.05 0.06 0.05 0.06 0.07 0.05 0.06 0.08 0.07 0.05 0.04 0.03 0.02 0.02 0.02 0.02
0.02 0.02 0.02 0.02 0.02 0.02 0.02 0.03 0.03 0.03 0.02 0.01 0.01 0.01 0.01 0.02 0.02 0.02 0.02 0.03 0.03 0.03 0.04 0.04 0.03 0.04 0.05 0.05 0.05 0.05 0.08 0.08 0.07 0.05 0.04 0.03 0.03 0.02
0.03 0.02 0.02 0.03 0.02 0.02 0.02 0.03 0.03 0.03 0.02 0.01 0.01 0.01 0.01 0.01 0.01 0.02 0.02 0.01 0.02 0.02 0.02 0.03 0.03 0.03 0.03 0.04 0.04 0.05 0.06 0.09 0.11 0.10 0.07 0.05 0.04 0.03
0.05 0.04 0.04 0.04 0.04 0.03 0.03 0.03 0.04 0.05 0.03 0.02 0.02 0.01 0.01 0.01 0.02 0.02 0.02 0.01 0.02 0.02 0.03 0.04 0.04 0.02 0.02 0.02 0.02 0.03 0.03 0.04 0.07 0.09 0.08 0.07 0.05 0.03
0.05 0.04 0.04 0.04 0.05 0.04 0.04 0.05 0.06 0.04 0.02 0.02 0.02 0.02 0.02 0.02 0.02 0.01 0.01 0.01 0.02 0.01 0.02 0.03 0.04 0.03 0.03 0.03 0.03 0.02 0.01 0.02 0.03 0.05 0.07 0.07 0.05 0.04
0.05 0.04 0.03 0.03 0.04 0.06 0.06 0.05 0.05 0.03 0.02 0.01 0.02 0.02 0.02 0.02 0.02 0.02 0.01 0.01 0.02 0.03 0.02 0.02 0.03 0.03 0.02 0.02 0.03 0.03 0.02 0.01 0.02 0.03 0.04 0.05 0.05 0.05
0.04 0.04 0.04 0.04 0.05 0.07 0.08 0.09 0.07 0.05 0.02 0.02 0.01 0.02 0.01 0.02 0.02 0.02 0.02 0.02 0.02 0.02 0.02 0.01 0.01 0.02 0.02 0.02 0.02 0.02 0.02 0.02 0.02 0.02 0.03 0.04 0.04 0.05
0.04 0.04 0.05 0.04 0.04 0.04 0.05 0.05 0.06 0.05 0.03 0.02 0.02 0.02 0.02 0.02 0.03 0.03 0.03 0.03 0.02 0.01 0.01 0.02 0.02 0.02 0.02 0.02 0.02 0.02 0.02 0.02 0.03 0.03 0.04 0.05 0.05 0.04
0.03 0.03 0.04 0.05 0.04 0.03 0.03 0.03 0.04 0.04 0.04 0.03 0.03 0.02 0.02 0.02 0.02 0.03 0.03 0.03 0.02 0.02 0.02 0.03 0.03 0.02 0.02 0.02 0.02 0.02 0.01 0.02 0.02 0.03 0.04 0.05 0.06 0.05
0.03 0.03 0.03 0.04 0.04 0.04 0.04 0.04 0.04 0.03 0.04 0.03 0.02 0.02 0.02 0.02 0.02 0.03 0.04 0.03 0.02 0.02 0.02 0.02 0.03 0.02 0.01 0.02 0.02 0.02 0.01 0.02 0.02 0.03 0.03 0.04 0.05 0.05
MSLP
1013.59 1013.79 1014.02 1014.23 1014.39 1014.46 1014.42 1014.27 1014.03 1013.70 1013.34 1012.98 1012.64 1012.36 1012.14 1011.98 1011.90 1011.88 1011.92 1012.02 1012.16 1012.36 1012.60 1012.86 1013.14 1013.41 1013.67 1013.91 1014.12 1014.31 1014.49 1014.66 1014.84 1015.04 1015.24 1015.45 1015.65 1015.83
1013.28 1013.43 1013.60 1013.76 1013.89 1013.94 1013.92 1013.81 1013.63 1013.38 1013.10 1012.80 1012.51 1012.24 1012.00 1011.80 1011.63 1011.52 1011.45 1011.43 1011.47 1011.58 1011.74 1011.94 1012.19 1012.45 1012.72 1012.98 1013.22 1013.46 1013.68 1013.90 1014.13 1014.37 1014.62 1014.87 1015.11 1015.34
1013.00 1013.10 1013.21 1013.31 1013.38 1013.41 1013.39 1013.31 1013.18 1013.00 1012.79 1012.57 1012.33 1012.09 1011.85 1011.62 1011.39 1011.18 1011.01 1010.88 1010.81 1010.81 1010.88 1011.02 1011.21 1011.44 1011.70 1011.96 1012.22 1012.48 1012.74 1013.00 1013.27 1013.56 1013.85 1014.15 1014.45 1014.73
1012.77 1012.83 1012.87 1012.91 1012.92 1012.91 1012.87 1012.80 1012.70 1012.58 1012.43 1012.27 1012.08 1011.88 1011.65 1011.39 1011.13 1010.85 1010.60 1010.37 1010.20 1010.10 1010.08 1010.14 1010.27 1010.45 1010.67 1010.91 1011.17 1011.43 1011.69 1011.97 1012.27 1012.59 1012.92 1013.27 1013.62 1013.95
1012.61 1012.62 1012.61 1012.58 1012.54 1012.48 1012.40 1012.31 1012.21 1012.11 1012.00 1011.87 1011.73 1011.55 1011.34 1011.09 1010.80 1010.49 1010.17 1009.88 1009.64 1009.46 1009.36 1009.34 1009.39 1009.51 1009.67 1009.86 1010.08 1010.31 1010.56 1010.83 1011.13 1011.46 1011.82 1012.21 1012.60 1012.99
1012.51 1012.49 1012.43 1012.34 1012.23 1012.10 1011.97 1011.84 1011.72 1011.60 1011.49 1011.38 1011.26 1011.10 1010.90 1010.66 1010.37 1010.05 1009.71 1009.39 1009.10 1008.87 1008.70 1008.61 1008.59 1008.63 1008.72 1008.84 1008.98 1009.16 1009.36 1009.59 1009.87 1010.20 1010.57 1010.98 1011.41 1011.86
1012.46 1012.40 1012.30 1012.15 1011.98 1011.78 1011.58 1011.39 1011.21 1011.06 1010.92 1010.79 1010.66 1010.51 1010.32 1010.09 1009.82 1009.52 1009.19 1008.86 1008.56 1008.29 1008.08 1007.94 1007.85 1007.80 1007.80 1007.84 1007.90 1007.99 1008.12 1008.30 1008.53 1008.84 1009.20 1009.64 1010.11 1010.60
1012.44 1012.35 1012.20 1012.00 1011.77 1011.50 1011.22 1010.95 1010.70 1010.48 1010.29 1010.12 1009.96 1009.80 1009.62 1009.41 1009.16 1008.88 1008.59 1008.28 1007.98 1007.72 1007.48 1007.29 1007.14 1007.02 1006.93 1006.87 1006.84 1006.84 1006.88 1007.00 1007.18 1007.46 1007.82 1008.26 1008.77 1009.32
1012.43 1012.30 1012.12 1011.87 1011.57 1011.24 1010.89 1010.54 1010.21 1009.91 1009.64 1009.41 1009.21 1009.02 1008.84 1008.64 1008.42 1008.17 1007.91 1007.64 1007.37 1007.11 1006.87 1006.65 1006.46 1006.27 1006.11 1005.96 1005.83 1005.75 1005.72 1005.77 1005.91 1006.15 1006.51 1006.97 1007.52 1008.12
1012.41 1012.25 1012.03 1011.74 1011.40 1011.01 1010.60 1010.17 1009.77 1009.38 1009.05 1008.75 1008.49 1008.26 1008.06 1007.85 1007.65 1007.43 1007.20 1006.97 1006.73 1006.49 1006.25 1006.02 1005.80 1005.57 1005.35 1005.13 1004.94 1004.78 1004.69 1004.69 1004.80 1005.03 1005.39 1005.87 1006.45 1007.10
1012.39 1012.19 1011.94 1011.63 1011.26 1010.83 1010.37 1009.90 1009.42 1008.97 1008.56 1008.20 1007.88 1007.61 1007.36 1007.14 1006.94 1006.73 1006.52 1006.32 1006.10 1005.89 1005.66 1005.43 1005.19 1004.94 1004.68 1004.43 1004.19 1004.00 1003.88 1003.85 1003.94 1004.16 1004.52 1005.02 1005.64 1006.34
1012.35 1012.14 1011.88 1011.56 1011.18 1010.74 1010.25 1009.75 1009.23 1008.73 1008.27 1007.84 1007.46 1007.14 1006.85 1006.60 1006.37 1006.16 1005.95 1005.76 1005.56 1005.36 1005.14 1004.92 1004.68 1004.43 1004.16 1003.90 1003.65 1003.45 1003.31 1003.27 1003.36 1003.58 1003.95 1004.47 1005.10 1005.83
1012.33 1012.12 1011.86 1011.55 1011.18 1010.75 1010.27 1009.76 1009.23 1008.70 1008.20 1007.72 1007.30 1006.92 1006.58 1006.29 1006.02 1005.78 1005.57 1005.36 1005.16 1004.96 1004.76 1004.55 1004.32 1004.08 1003.83 1003.57 1003.34 1003.14 1003.01 1002.97 1003.06 1003.29 1003.66 1004.17 1004.81 1005.55
1012.32 1012.14 1011.91 1011.64 1011.30 1010.90 1010.45 1009.96 1009.44 1008.90 1008.38 1007.88 1007.41 1006.99 1006.60 1006.25 1005.95 1005.67 1005.42 1005.19 1004.98 1004.77 1004.57 1004.37 1004.16 1003.93 1003.70 1003.47 1003.25 1003.07 1002.95 1002.92 1003.01 1003.22 1003.58 1004.08 1004.70 1005.41
1012.34 1012.20 1012.03 1011.81 1011.53 1011.18 1010.78 1010.33 1009.84 1009.33 1008.81 1008.30 1007.80 1007.34 1006.91 1006.52 1006.16 1005.83 1005.54 1005.27 1005.03 1004.81 1004.61 1004.40 1004.20 1003.99 1003.78 1003.57 1003.37 1003.20 1003.08 1003.05 1003.12 1003.31 1003.63 1004.09 1004.66 1005.34
1012.38 1012.31 1012.20 1012.05 1011.84 1011.57 1011.23 1010.84 1010.40 1009.92 1009.43 1008.93 1008.43 1007.95 1007.48 1007.05 1006.64 1006.26 1005.92 1005.61 1005.33 1005.09 1004.86 1004.65 1004.45 1004.24 1004.04 1003.83 1003.63 1003.46 1003.34 1003.28 1003.32 1003.46 1003.73 1004.13 1004.64 1005.25
1012.42 1012.43 1012.40 1012.33 1012.20 1012.01 1011.75 1011.43 1011.05 1010.63 1010.18 1009.70 1009.22 1008.73 1008.25 1007.78 1007.33 1006.91 1006.52 1006.17 1005.85 1005.57 1005.31 1005.08 1004.85 1004.64 1004.42 1004.20 1003.99 1003.80 1003.65 1003.55 1003.54 1003.62 1003.82 1004.14 1004.58 1005.11
1012.43 1012.52 1012.57 1012.59 1012.54 1012.43 1012.26 1012.02 1011.72 1011.36 1010.96 1010.53 1010.07 1009.60 1009.11 1008.63 1008.16 1007.70 1007.27 1006.88 1006.52 1006.19 1005.90 1005.63 1005.38 1005.13 1004.89 1004.64 1004.40 1004.17 1003.96 1003.82 1003.74 1003.75 1003.88 1004.12 1004.48 1004.95
1012.37 1012.54 1012.68 1012.77 1012.81 1012.79 1012.69 1012.53 1012.31 1012.03 1011.70 1011.32 1010.91 1010.46 1009.99 1009.51 1009.02 1008.54 1008.09 1007.66 1007.26 1006.89 1006.56 1006.25 1005.96 1005.67 1005.38 1005.10 1004.81 1004.53 1004.27 1004.06 1003.92 1003.87 1003.93 1004.10 1004.40 1004.80
1012.24 1012.48 1012.68 1012.85 1012.96 1013.01 1013.00 1012.92 1012.78 1012.58 1012.32 1012.01 1011.64 1011.23 1010.79 1010.32 1009.84 1009.36 1008.88 1008.43 1008.00 1007.60 1007.24 1006.89 1006.55 1006.23 1005.90 1005.56 1005.22 1004.89 1004.59 1004.32 1004.13 1004.02 1004.02 1004.14 1004.38 1004.75
1012.01 1012.30 1012.57 1012.79 1012.97 1013.09 1013.15 1013.15 1013.09 1012.96 1012.78 1012.53 1012.22 1011.86 1011.46 1011.01 1010.55 1010.07 1009.59 1009.13 1008.69 1008.27 1007.88 1007.50 1007.14 1006.78 1006.41 1006.04 1005.66 1005.29 1004.94 1004.64 1004.40 1004.25 1004.20 1004.29 1004.50 1004.84
1011.71 1012.03 1012.33 1012.60 1012.83 1013.01 1013.13 1013.21 1013.22 1013.17 1013.05 1012.87 1012.63 1012.32 1011.95 1011.55 1011.11 1010.65 1010.18 1009.73 1009.29 1008.87 1008.47 1008.08 1007.70 1007.32 1006.94 1006.55 1006.14 1005.75 1005.37 1005.04 1004.77 1004.59 1004.53 1004.58 1004.78 1005.10
1011.34 1011.68 1012.00 1012.30 1012.56 1012.79 1012.98 1013.11 1013.19 1013.21 1013.16 1013.05 1012.86 1012.60 1012.28 1011.91 1011.50 1011.07 1010.63 1010.20 1009.78 1009.37 1008.99 1008.61 1008.24 1007.87 1007.49 1007.09 1006.69 1006.29 1005.90 1005.56 1005.27 1005.08 1004.99 1005.02 1005.19 1005.49
Thickness
5726 5725 5723 5722 5722 5721 5719 5716 5710 5705 5707 5712 5715 5719 5719 5719 5719 5718 5718 5718 5717 5717 5716 5715 5714 5713 5712 5711 5711 5711 5710 5709 5709 5708 5707 5707 5706 5705
5720 5719 5717 5716 5716 5715 5714 5712 5709 5704 5701 5706 5709 5711 5712 5713 5713 5712 5712 5712 5712 5711 5711 5710 5709 5708 5707 5706 5706 5705 5704 5704 5703 5703 5702 5702 5701 5700
5714 5712 5711 5710 5709 5708 5707 5705 5703 5700 5696 5699 5702 5704 5705 5705 5705 5705 5705 5705 5705 5705 5705 5705 5704 5703 5702 5701 5700 5700 5699 5698 5698 5697 5696 5696 5695 5695
5706 5705 5704 5705 5703 5701 5699 5698 5696 5695 5692 5690 5693 5695 5697 5698 5698 5697 5698 5698 5698 5699 5699 5698 5698 5697 5696 5695 5694 5694 5693 5693 5692 5691 5691 5690 5689 5689
5701 5699 5698 5697 5695 5694 5692 5691 5690 5690 5687 5685 5685 5686 5688 5689 5689 5689 5690 5690 5691 5692 5691 5691 5691 5691 5690 5690 5689 5688 5687 5687 5686 5685 5684 5684 5683 5683
5694 5693 5691 5690 5688 5687 5687 5685 5683 5681 5680 5678 5677 5677 5678 5679 5678 5678 5678 5679 5681 5683 5684 5684 5684 5684 5684 5683 5683 5682 5681 5680 5679 5679 5678 5677 5677 5677
5687 5686 5685 5684 5684 5682 5681 5678 5676 5674 5671 5670 5668 5668 5667 5667 5667 5669 5668 5669 5671 5674 5674 5675 5675 5675 5675 5676 5675 5675 5674 5673 5673 5672 5671 5670 5670 5670
5680 5679 5678 5677 5676 5676 5675 5674 5672 5669 5665 5663 5661 5660 5660 5660 5660 5661 5659 5658 5658 5664 5663 5664 5666 5665 5667 5668 5668 5668 5667 5666 5665 5664 5664 5663 5663 5662
5673 5671 5670 5670 5668 5666 5666 5666 5666 5665 5664 5660 5656 5655 5655 5655 5653 5652 5652 5651 5652 5655 5654 5654 5656 5656 5659 5661 5661 5661 5660 5659 5657 5657 5656 5656 5655 5655
5666 5664 5661 5660 5660 5658 5656 5656 5655 5655 5655 5654 5652 5651 5651 5650 5649 5648 5647 5646 5646 5647 5647 5644 5647 5648 5652 5652 5653 5653 5652 5651 5650 5649 5648 5648 5648 5648
5658 5656 5653 5652 5652 5650 5648 5646 5646 5646 5648 5647 5646 5645 5645 5644 5643 5640 5637 5635 5634 5636 5638 5637 5639 5640 5642 5644 5645 5644 5643 5643 5642 5642 5641 5640 5640 5639
5650 5648 5646 5644 5643 5641 5639 5637 5636 5636 5637 5636 5635 5635 5635 5635 5634 5632 5630 5627 5625 5626 5631 5630 5630 5630 5630 5635 5636 5636 5635 5635 5634 5634 5633 5633 5632 5630
5640 5638 5637 5636 5634 5633 5632 5630 5630 5629 5627 5626 5625 5625 5625 5625 5625 5625 5624 5622 5619 5619 5624 5623 5622 5621 5620 5623 5625 5627 5627 5626 5626 5625 5625 5625 5624 5623
5632 5630 5629 5629 5627 5626 5625 5624 5623 5621 5618 5617 5615 5615 5615 5615 5616 5617 5617 5617 5616 5616 5617 5616 5615 5614 5613 5613 5615 5617 5618 5618 5618 5617 5617 5616 5616 5616
5627 5625 5623 5621 5620 5619 5618 5617 5615 5612 5610 5607 5606 5607 5607 5608 5609 5608 5608 5609 5609 5609 5610 5609 5608 5608 5607 5606 5607 5608 5608 5610 5610 5610 5610 5609 5609 5609
5620 5618 5616 5614 5612 5611 5610 5608 5606 5605 5603 5601 5600 5600 5600 5600 5600 5599 5598 5598 5598 5599 5601 5601 5601 5600 5599 5599 5599 5599 5599 5600 5602 5603 5603 5603 5603 5603
5612 5609 5606 5604 5602 5601 5600 5600 5599 5597 5596 5595 5594 5593 5593 5593 5592 5591 5590 5589 5588 5588 5590 5592 5593 5593 5593 5592 5591 5591 5591 5592 5594 5595 5595 5595 5597 5598
5604 5601 5599 5597 5596 5595 5593 5593 5592 5591 5590 5589 5588 5587 5586 5585 5585 5584 5583 5581 5580 5581 5581 5582 5583 5583 5583 5584 5585 5584 5584 5585 5587 5587 5587 5588 5589 5591
5597 5595 5594 5592 5591 5589 5588 5586 5585 5585 5585 5584 5583 5582 5581 5580 5579 5577 5576 5575 5574 5574 5575 5575 5574 5573 5572 5573 5576 5578 5577 5578 5578 5579 5580 5580 5582 5584
5592 5590 5588 5587 5585 5584 5582 5581 5580 5580 5579 5578 5578 5577 5576 5574 5573 5571 5570 5569 5568 5568 5568 5568 5568 5567 5566 5566 5568 5570 5572 5571 5571 5572 5573 5574 5575 5578
5589 5587 5585 5583 5581 5580 5579 5577 5576 5575 5574 5573 5572 5571 5570 5569 5567 5567 5565 5565 5563 5562 5561 5562 5564 5564 5563 5561 5560 5562 5564 5566 5566 5565 5566 5567 5568 5569
5586 5584 5583 5580 5578 5577 5575 5573 5571 5570 5569 5568 5567 5566 5565 5563 5563 5562 5561 5560 5558 5557 5557 5557 5557 5557 5556 5554 5553 5554 5556 5558 5559 5561 5562 5563 5562 5563
5583 5582 5580 5577 5575 5573 5571 5568 5566 5564 5562 5561 5560 5560 5559 5558 5557 5557 5557 5556 5554 5553 5552 5550 5550 5550 5549 5548 5547 5547 5549 5550 5551 5552 5554 5557 5558 5560